Sioux City, IA

12:58 PM CST on December 15, 2019 (GMT -0600)
Sioux Gateway

Weather History for KSUX - October, 2019

Change the Weather History Date:

Wednesday, October 9, 2019

  Actual Average Record
Temperature  
Mean Temperature 58 °F 54 °F  
Max Temperature 68 °F 67 °F 87 °F (1980)
Min Temperature 49 °F 40 °F 20 °F (2000)
Degree Days  
Heating Degree Days 6 12  
Month to date heating degree days 112 95  
Since 1 July heating degree days 148 242  
Cooling Degree Days 0 0  
Month to date cooling degree days 0 8  
Year to date cooling degree days 910 869  
Growing Degree Days 8 (Base 50)    
Moisture  
Dew Point 50 °F    
Average Humidity 78    
Maximum Humidity 89    
Minimum Humidity 59    
Precipitation  
Precipitation T in 0.08 in 1.20 in (1973)
Month to date precipitation 2.00 0.78  
Year to date precipitation 30.11 24.28  
Snow  
Snow 0.00 in 0.00 in 5.10 in (1970)
Month to date snowfall 0.0 0.1  
Since 1 July snowfall 0.0 0.1  
Since 1 September snowfall 0.0 0.1  
Snow Depth 0.00 in    
Sea Level Pressure  
Sea Level Pressure 29.82 in    
Wind  
Wind Speed 11 mph ()    
Max Wind Speed 29 mph    
Max Gust Speed 40 mph    
Visibility 10.0 miles    
Events      
T = Trace of Precipitation, MM = Missing Value Source: Averaged Metar Reports

Daily Weather History Graph

Daily Weather History Graph

Search for Another Location

Airport or City:

Astronomy

Oct. 09, 2019 Rise Set
Actual Time 7:31 AM CDT 6:53 PM CDT
Civil Twilight 7:03 AM CDT 7:21 PM CDT
Nautical Twilight 6:30 AM CDT 7:54 PM CDT
Astronomical Twilight 5:57 AM CDT 8:26 PM CDT
Moon 5:32 PM CDT (10/9) 3:12 AM CDT (10/9)
Length of Visible Light 12h 18m
Length of Day
11h 22m
Waxing Gibbous, 85% of the Moon is Illuminated
Oct 9
Waxing Gibbous
Oct 13
Full
Oct 21
Last Quarter
Oct 27
New
Nov 4
First Quarter

Hourly Weather History & Observations

Time (CDT) Temp. Dew Point Humidity Pressure Visibility Wind Dir Wind Speed Gust Speed Precip Events Conditions
12:52 AM 52.0 °F 46.9 °F 83% 29.85 in 10.0 mi ESE 10.4 mph - N/A   Clear
1:52 AM 50.0 °F 46.9 °F 89% 29.84 in 10.0 mi ESE 9.2 mph - N/A   Clear
2:52 AM 53.1 °F 48.9 °F 86% 29.83 in 10.0 mi SE 10.4 mph - N/A   Clear
3:52 AM 52.0 °F 48.0 °F 86% 29.82 in 10.0 mi SE 11.5 mph - N/A   Clear
4:52 AM 52.0 °F 48.9 °F 89% 29.82 in 10.0 mi SE 10.4 mph - N/A   Clear
5:52 AM 52.0 °F 48.9 °F 89% 29.82 in 10.0 mi SE 10.4 mph - N/A   Clear
6:52 AM 50.0 °F 46.9 °F 89% 29.82 in 10.0 mi SE 8.1 mph - N/A   Clear
7:52 AM 51.1 °F 46.9 °F 86% 29.82 in 10.0 mi SE 9.2 mph - N/A   Clear
8:52 AM 54.0 °F 48.0 °F 80% 29.82 in 10.0 mi SE 11.5 mph - N/A   Clear
9:52 AM 59.0 °F 48.9 °F 69% 29.83 in 10.0 mi SSE 12.7 mph 25.3 mph N/A   Clear
10:52 AM 64.0 °F 51.1 °F 63% 29.84 in 10.0 mi SSE 13.8 mph - N/A   Clear
11:52 AM 63.0 °F 50.0 °F 63% 29.84 in 10.0 mi SSE 18.4 mph 26.5 mph N/A   Partly Cloudy
12:52 PM 64.9 °F 52.0 °F 63% 29.82 in 10.0 mi South 19.6 mph 28.8 mph N/A   Clear
1:52 PM 66.9 °F 54.0 °F 63% 29.80 in 10.0 mi South 16.1 mph 23.0 mph N/A   Scattered Clouds
2:52 PM 64.9 °F 54.0 °F 68% 29.79 in 10.0 mi SSE 17.3 mph 27.6 mph N/A   Clear
3:52 PM 68.0 °F 54.0 °F 61% 29.77 in 10.0 mi SSE 19.6 mph 31.1 mph N/A   Overcast
4:52 PM 63.0 °F 53.1 °F 70% 29.78 in 10.0 mi SSE 21.9 mph 32.2 mph N/A   Overcast
5:52 PM 61.0 °F 50.0 °F 67% 29.80 in 10.0 mi SSE 17.3 mph 26.5 mph N/A   Overcast
6:52 PM 59.0 °F 48.9 °F 69% 29.81 in 10.0 mi SE 13.8 mph 25.3 mph N/A   Overcast
7:52 PM 55.9 °F 52.0 °F 87% 29.83 in 10.0 mi SE 8.1 mph - 0.00 in   Overcast
8:09 PM 57.0 °F 51.1 °F 81% 29.83 in 10.0 mi SE 11.5 mph 20.7 mph N/A   Overcast
8:52 PM 55.9 °F 52.0 °F 87% 29.84 in 10.0 mi SE 9.2 mph - N/A   Overcast
9:52 PM 55.9 °F 51.1 °F 84% 29.85 in 10.0 mi SE 12.7 mph - N/A   Overcast
10:52 PM 55.9 °F 51.1 °F 84% 29.85 in 10.0 mi SE 12.7 mph 23.0 mph N/A   Overcast
11:52 PM 55.9 °F 52.0 °F 87% 29.85 in 10.0 mi SE 11.5 mph 19.6 mph N/A   Overcast